• In Hungary
  • List of Countries
  • For 7 days
  • Water Temperature
  • Satellite Maps
  • Weather Map
  • News
  • Weather Widgets
  • user-avatar
    Login

    Hourly Weather Mons

    Today, 23 February, Friday

    Time Temperature Precipitation Wind Pressure Humidity
    00:00 -3°C° 0 mm 4 mps 763 mmHg 66%
    01:00 -4°C° 0 mm 4 mps 763 mmHg 66%
    02:00 -4°C° 0 mm 4 mps 763 mmHg 66%
    03:00 -4°C° 0 mm 4 mps 762 mmHg 66%
    04:00 -4°C° 0 mm 4 mps 762 mmHg 66%
    05:00 -4°C° 0 mm 4 mps 763 mmHg 66%
    06:00 -5°C° 0 mm 4 mps 763 mmHg 69%
    07:00 -5°C° 0 mm 5 mps 762 mmHg 64%
    08:00 -4°C° 0 mm 5 mps 762 mmHg 59%
    09:00 -3°C° 0 mm 6 mps 762 mmHg 53%
    10:00 -2°C° 0 mm 6 mps 762 mmHg 49%
    11:00 -1°C° 0 mm 6 mps 762 mmHg 44%
    12:00 +1°C° 0 mm 6 mps 762 mmHg 40%
    13:00 +1°C° 0 mm 6 mps 761 mmHg 40%
    14:00 +2°C° 0 mm 6 mps 761 mmHg 39%
    15:00 +2°C° 0 mm 6 mps 761 mmHg 39%
    16:00 +1°C° 0 mm 6 mps 761 mmHg 43%
    17:00 -1°C° 0 mm 5 mps 761 mmHg 46%
    18:00 -2°C° 0 mm 5 mps 761 mmHg 49%
    19:00 -2°C° 0 mm 5 mps 761 mmHg 49%
    20:00 -4°C° 0 mm 5 mps 761 mmHg 48%
    21:00 -4°C° 0 mm 5 mps 761 mmHg 48%
    22:00 -5°C° 0 mm 5 mps 761 mmHg 46%
    23:00 -4°C° 0 mm 4 mps 761 mmHg 45%

    Tomorrow, 24 February, Saturday

    Time Temperature Precipitation Wind Pressure Humidity
    00:00 -4°C° 0 mm 4 mps 761 mmHg 43%
    01:00 -4°C° 0 mm 4 mps 761 mmHg 43%
    02:00 -5°C° 0 mm 5 mps 761 mmHg 42%
    03:00 -6°C° 0 mm 5 mps 761 mmHg 41%
    04:00 -6°C° 0 mm 5 mps 761 mmHg 40%
    05:00 -6°C° 0 mm 5 mps 762 mmHg 39%
    06:00 -6°C° 0 mm 5 mps 762 mmHg 38%
    07:00 -4°C° 0 mm 6 mps 762 mmHg 34%
    08:00 -3°C° 0 mm 6 mps 762 mmHg 30%
    09:00 -2°C° 0 mm 7 mps 762 mmHg 26%
    10:00 -1°C° 0 mm 7 mps 762 mmHg 26%
    11:00 +2°C° 0 mm 7 mps 762 mmHg 27%
    12:00 +3°C° 0 mm 7 mps 762 mmHg 28%
    13:00 +3°C° 0 mm 7 mps 762 mmHg 31%
    14:00 +3°C° 0 mm 7 mps 762 mmHg 35%
    15:00 +4°C° 0 mm 7 mps 762 mmHg 38%
    16:00 +2°C° 0 mm 7 mps 762 mmHg 44%
    17:00 0°C° 0 mm 7 mps 763 mmHg 49%
    18:00 -2°C° 0 mm 6 mps 763 mmHg 55%
    19:00 -2°C° 0 mm 6 mps 763 mmHg 54%
    20:00 -3°C° 0 mm 6 mps 764 mmHg 52%
    21:00 -4°C° 0 mm 6 mps 764 mmHg 51%
    22:00 -4°C° 0 mm 6 mps 764 mmHg 50%
    23:00 -5°C° 0 mm 6 mps 765 mmHg 49%

    Day after tomorrow, 25 February, Sunday

    Time Temperature Precipitation Wind Pressure Humidity
    00:00 -5°C° 0 mm 6 mps 765 mmHg 48%
    01:00 -5°C° 0 mm 6 mps 765 mmHg 48%
    02:00 -6°C° 0 mm 6 mps 765 mmHg 47%
    03:00 -6°C° 0 mm 6 mps 765 mmHg 47%
    04:00 -6°C° 0 mm 6 mps 765 mmHg 46%
    05:00 -6°C° 0 mm 6 mps 765 mmHg 44%
    06:00 -8°C° 0 mm 6 mps 766 mmHg 43%
    07:00 -7°C° 0 mm 7 mps 766 mmHg 39%
    08:00 -6°C° 0 mm 7 mps 766 mmHg 35%
    09:00 -6°C° 0 mm 8 mps 767 mmHg 30%
    10:00 -5°C° 0 mm 8 mps 767 mmHg 27%
    11:00 -4°C° 0 mm 8 mps 767 mmHg 25%
    12:00 -2°C° 0 mm 8 mps 767 mmHg 22%
    13:00 -2°C° 0 mm 8 mps 766 mmHg 23%
    14:00 -2°C° 0 mm 8 mps 766 mmHg 24%
    15:00 -2°C° 0 mm 7 mps 766 mmHg 26%
    16:00 -3°C° 0 mm 7 mps 766 mmHg 30%
    17:00 -4°C° 0 mm 6 mps 767 mmHg 35%
    18:00 -5°C° 0 mm 6 mps 767 mmHg 40%
    19:00 -5°C° 0 mm 6 mps 767 mmHg 42%
    20:00 -6°C° 0 mm 6 mps 768 mmHg 45%
    21:00 -6°C° 0 mm 6 mps 768 mmHg 48%
    22:00 -6°C° 0 mm 6 mps 768 mmHg 50%
    23:00 -6°C° 0 mm 5 mps 768 mmHg 53%

    26 February, Monday

    Time Temperature Precipitation Wind Pressure Humidity
    00:00 -6°C° 0 mm 5 mps 768 mmHg 55%
    01:00 -7°C° 0 mm 5 mps 768 mmHg 56%
    02:00 -7°C° 0 mm 5 mps 768 mmHg 57%
    03:00 -7°C° 0 mm 5 mps 768 mmHg 58%
    04:00 -8°C° 0 mm 6 mps 768 mmHg 57%
    05:00 -8°C° 0 mm 6 mps 768 mmHg 56%
    06:00 -8°C° 0 mm 6 mps 768 mmHg 55%
    07:00 -8°C° 0 mm 7 mps 768 mmHg 52%
    08:00 -7°C° 0 mm 7 mps 768 mmHg 49%
    09:00 -7°C° 0 mm 8 mps 768 mmHg 45%
    10:00 -6°C° 0 mm 8 mps 768 mmHg 41%
    11:00 -5°C° 0 mm 8 mps 767 mmHg 37%
    12:00 -5°C° 0 mm 8 mps 767 mmHg 33%
    13:00 -5°C° 0 mm 8 mps 766 mmHg 33%
    14:00 -5°C° 0 mm 8 mps 766 mmHg 32%
    15:00 -4°C° 0 mm 8 mps 766 mmHg 32%
    16:00 -4°C° 0 mm 7 mps 766 mmHg 35%
    17:00 -5°C° 0 mm 6 mps 766 mmHg 39%
    18:00 -6°C° 0 mm 5 mps 766 mmHg 43%
    19:00 -6°C° 0 mm 5 mps 766 mmHg 44%
    20:00 -6°C° 0 mm 5 mps 766 mmHg 46%
    21:00 -7°C° 0 mm 5 mps 766 mmHg 47%
    22:00 -7°C° 0 mm 5 mps 766 mmHg 49%
    23:00 -7°C° 0 mm 5 mps 765 mmHg 50%

    27 February, Tuesday

    Time Temperature Precipitation Wind Pressure Humidity
    00:00 -7°C° 0 mm 5 mps 765 mmHg 51%
    01:00 -7°C° 0 mm 5 mps 765 mmHg 55%
    02:00 -7°C° 0 mm 5 mps 765 mmHg 58%
    03:00 -8°C° 0 mm 5 mps 765 mmHg 61%
    04:00 -8°C° 0 mm 5 mps 764 mmHg 59%
    05:00 -8°C° 0 mm 5 mps 764 mmHg 58%
    06:00 -8°C° 0 mm 5 mps 764 mmHg 56%
    07:00 -9°C° 0 mm 6 mps 764 mmHg 51%
    08:00 -8°C° 0 mm 7 mps 764 mmHg 46%
    09:00 -8°C° 0 mm 7 mps 764 mmHg 40%
    10:00 -7°C° 0 mm 7 mps 764 mmHg 36%
    11:00 -6°C° 0 mm 7 mps 763 mmHg 32%
    12:00 -4°C° 0 mm 7 mps 763 mmHg 29%
    13:00 -4°C° 0 mm 7 mps 763 mmHg 28%
    14:00 -4°C° 0 mm 7 mps 762 mmHg 27%
    15:00 -4°C° 0 mm 7 mps 762 mmHg 26%
    16:00 -5°C° 0 mm 6 mps 762 mmHg 28%
    17:00 -6°C° 0 mm 5 mps 762 mmHg 30%
    18:00 -5°C° 0 mm 4 mps 762 mmHg 33%
    19:00 -7°C° 0 mm 4 mps 762 mmHg 34%
    20:00 -7°C° 0 mm 4 mps 762 mmHg 35%
    21:00 -7°C° 0 mm 4 mps 763 mmHg 37%
    22:00 -7°C° 0 mm 4 mps 763 mmHg 38%
    23:00 -8°C° 0 mm 4 mps 763 mmHg 39%

    28 February, Wednesday

    Time Temperature Precipitation Wind Pressure Humidity
    00:00 -7°C° 0 mm 3 mps 762 mmHg 40%
    01:00 -7°C° 0 mm 3 mps 762 mmHg 41%
    02:00 -7°C° 0 mm 3 mps 762 mmHg 42%
    03:00 -8°C° 0 mm 3 mps 762 mmHg 43%
    04:00 -8°C° 0 mm 3 mps 762 mmHg 44%
    05:00 -8°C° 0 mm 3 mps 762 mmHg 45%
    06:00 -8°C° 0 mm 3 mps 762 mmHg 46%
    07:00 -9°C° 0 mm 4 mps 762 mmHg 40%
    08:00 -8°C° 0 mm 5 mps 762 mmHg 34%
    09:00 -8°C° 0 mm 6 mps 762 mmHg 29%
    10:00 -6°C° 0 mm 6 mps 762 mmHg 26%
    11:00 -7°C° 0 mm 7 mps 761 mmHg 23%
    12:00 -6°C° 0 mm 7 mps 761 mmHg 20%
    13:00 -6°C° 0 mm 7 mps 760 mmHg 20%
    14:00 -6°C° 0 mm 7 mps 760 mmHg 21%
    15:00 -6°C° 0 mm 7 mps 759 mmHg 21%
    16:00 -7°C° 0 mm 7 mps 759 mmHg 24%
    17:00 -6°C° 0 mm 6 mps 759 mmHg 27%
    18:00 -8°C° 0 mm 6 mps 759 mmHg 30%
    19:00 -8°C° 0 mm 6 mps 759 mmHg 30%
    20:00 -9°C° 0 mm 6 mps 758 mmHg 30%
    21:00 -9°C° 0 mm 6 mps 758 mmHg 30%
    22:00 -9°C° 0 mm 7 mps 758 mmHg 30%
    23:00 -9°C° 0 mm 7 mps 758 mmHg 30%
    Show more